Weather History for Kirksville, MO

Change the Weather History Date:

Saturday, March 31, 2012

  Actual Average Record
Temperature  
Mean Temperature 63 °F 47 °F  
Max Temperature 78 °F 58 °F 81 °F (1966)
Min Temperature 48 °F 36 °F 11 °F (1923)
Degree Days  
Heating Degree Days 2 18  
Month to date heating degree days 342 753  
Since 1 July heating degree days 4280 5287  
Cooling Degree Days 0 0  
Month to date cooling degree days 18 0  
Year to date cooling degree days 18 0  
Growing Degree Days 12 (Base 50)    
Moisture  
Dew Point 53 °F    
Average Humidity 77    
Maximum Humidity 100    
Minimum Humidity 54    
Precipitation  
Precipitation 0.00 in 0.08 in 1.87 in (1929)
Month to date precipitation 3.66 2.55  
Year to date precipitation 6.20 5.35  
Sea Level Pressure  
Sea Level Pressure 29.83 in    
Wind  
Wind Speed 9 mph (SE)    
Max Wind Speed 15 mph    
Max Gust Speed 18 mph    
Visibility 6 miles    
Events      
T = Trace of Precipitation, MM = Missing Value Source: NWS Daily Summary

Daily Weather History Graph

Daily Weather History Graph

Search for Another Location

Airport:

Trip Planner

Search our weather history database for the weather conditions in past years. The results will help you decide how hot, cold, wet, or windy it might be!

Date:

Astronomy

Mar. 31, 2012 Rise Set
Actual Time 6:54 AM CDT 7:34 PM CDT
Civil Twilight 6:27 AM CDT 8:01 PM CDT
Nautical Twilight 5:55 AM CDT 8:33 PM CDT
Astronomical Twilight 5:22 AM CDT 9:07 PM CDT
Moon 1:02 PM CDT (3/31) 2:52 AM CDT (3/31)
Length of Visible Light 13h 33m
Length of Day
12h 39m
First Quarter, 59% of the Moon is Illuminated
Mar 31
First Quarter
Apr 6
Full
Apr 13
Last Quarter
Apr 21
New
Apr 29
First Quarter

Hourly Weather History & Observations

Time (CDT) Temp. Dew Point Humidity Pressure Visibility Wind Dir Wind Speed Gust Speed Precip Events Conditions
12:55 AM 53.1 °F 51.1 °F 93% 29.88 in 6.0 mi East 8.1 mph - N/A   Partly Cloudy
1:55 AM 53.1 °F 51.1 °F 93% 29.86 in 5.0 mi ESE 8.1 mph - N/A   Partly Cloudy
2:55 AM 51.1 °F 50.0 °F 96% 29.87 in 5.0 mi SE 6.9 mph - N/A   Partly Cloudy
3:55 AM 50.0 °F 48.0 °F 93% 29.87 in 4.0 mi ESE 8.1 mph - N/A   Clear
4:55 AM 50.0 °F 48.0 °F 93% 29.86 in 3.0 mi ESE 12.7 mph - N/A   Mostly Cloudy
5:55 AM 48.9 °F 48.0 °F 97% 29.89 in 3.0 mi SE 6.9 mph - N/A   Scattered Clouds
6:42 AM 48.2 °F 46.4 °F 93% 29.88 in 2.5 mi East 5.8 mph - N/A   Partly Cloudy
6:55 AM 48.0 °F 46.9 °F 96% 29.89 in 2.5 mi East 8.1 mph - N/A   Scattered Clouds
7:14 AM 48.2 °F 46.4 °F 93% 29.88 in 1.8 mi ESE 8.1 mph - N/A   Partly Cloudy
7:35 AM 48.2 °F 46.4 °F 93% 29.89 in 2.0 mi ESE 6.9 mph - N/A   Partly Cloudy
7:55 AM 48.0 °F 46.9 °F 96% 29.91 in 2.0 mi ESE 8.1 mph - N/A   Partly Cloudy
8:48 AM 50.0 °F 48.2 °F 94% 29.89 in 2.5 mi SE 9.2 mph - N/A   Partly Cloudy
8:55 AM 50.0 °F 48.0 °F 93% 29.90 in 2.5 mi ESE 11.5 mph - N/A   Partly Cloudy
9:05 AM 51.8 °F 48.2 °F 88% 29.88 in 3.0 mi ESE 12.7 mph - N/A   Partly Cloudy
9:55 AM 55.0 °F 50.0 °F 83% 29.90 in 4.0 mi SE 11.5 mph - N/A   Haze
10:55 AM 57.9 °F 51.1 °F 78% 29.89 in 6.0 mi SSE 10.4 mph - N/A   Haze
11:55 AM 62.1 °F 54.0 °F 75% 29.87 in 7.0 mi SSE 10.4 mph - N/A   Clear
12:55 PM 64.9 °F 55.9 °F 73% 29.85 in 9.0 mi SSE 10.4 mph - N/A   Clear
1:55 PM 70.0 °F 57.9 °F 65% 29.82 in 10.0 mi SSE 10.4 mph - N/A   Clear
2:55 PM 73.9 °F 59.0 °F 59% 29.79 in 10.0 mi South 9.2 mph - N/A   Clear
3:55 PM 75.9 °F 57.0 °F 52% 29.77 in 10.0 mi SW 10.4 mph - N/A   Clear
4:55 PM 77.0 °F 59.0 °F 54% 29.75 in 10.0 mi South 10.4 mph - N/A   Clear
5:55 PM 77.0 °F 60.1 °F 56% 29.75 in 10.0 mi SSW 8.1 mph - N/A   Clear
6:55 PM 75.0 °F 60.1 °F 60% 29.75 in 10.0 mi South 6.9 mph - N/A   Clear
7:55 PM 64.9 °F 60.1 °F 84% 29.75 in 10.0 mi SSE 8.1 mph - N/A   Clear
8:55 PM 62.1 °F 57.9 °F 86% 29.75 in 10.0 mi SSE 9.2 mph - N/A   Clear
9:55 PM 62.1 °F 57.9 °F 86% 29.74 in 10.0 mi South 8.1 mph - N/A   Clear
10:55 PM 66.0 °F 57.0 °F 73% 29.73 in 10.0 mi SSW 6.9 mph - N/A   Partly Cloudy
11:55 PM 66.9 °F 57.0 °F 70% 29.71 in 10.0 mi SSW 9.2 mph - N/A   Clear